Home > Weather > Rabat > Past weeks

Flag for Morocco Weather for the Past 2 Weeks in Rabat, Morocco

Now
64 °F

Thunderstorms. Partly cloudy.


Feels Like: 64 °F
Forecast: 62 / 68 °F
Wind: 2 mph from North

Location: Rabat-Sale

Current Time: May 5, 2016 at 4:56:59 AM

Latest Report: May 5, 2016 at 4:30 AM


Visibility: 3 mi

Pressure: 29.83 "Hg

Humidity: 94%

Dew Point: 63 °F

Location of RabatLocation

Historic Weather in Rabat — Graph

°F

Rabat Temperature Yesterday

Maximum temperature yesterday: 70 °F (at 11:30 AM)
Minimum temperature yesterday: 61 °F (at 6:30 AM)
Average temperature yesterday: 65 °F

High & Low Weather Summary for the Past Weeks

 TemperatureHumidityPressure
High86 °F (May 2, 12:30 PM)94% (Apr 21, 6:30 AM)30.18 "Hg (Apr 21, 6:30 AM)
Low48 °F (Apr 21, 5:30 AM)24% (May 2, 12:30 PM)29.80 "Hg (May 2, 4:30 PM)
Average64 °F72%29.97 "Hg
* Reported Apr 20 3:00 AM — May 5 3:30 AM, Rabat, Weather by CustomWeather, © 2016

Note: Actual official high and low records may vary slightly from our data, if they occured in-between our weather recording intervals... More about our weather records

Advertising

Rabat Weather History for the Previous 24 Hours

Scroll right to see more
 ConditionsComfort  
Time TempWeatherWind HumidityBarometerVisibility
3:30 AM
Thu, May 5
64 °FThunderstorms. Partly cloudy.5 mph94%29.83 "Hg3 mi
3:00 AM64 °FThunderstorms. Partly cloudy.3 mph94%29.83 "Hg3 mi
2:30 AM64 °FThunderstorms. Partly cloudy.3 mph94%29.83 "Hg3 mi
2:00 AM66 °FThunderstorms. Partly cloudy.1 mph88%29.86 "Hg3 mi
1:30 AM66 °FThunderstorms. Partly cloudy.5 mph88%29.86 "Hg3 mi
1:00 AM64 °FThunderstorms. Partly cloudy.2 mph94%29.86 "Hg3 mi
12:30 AM64 °FThunderstorms. Partly cloudy.2 mph94%29.86 "Hg3 mi
12:00 AM66 °FThunderstorms. Partly cloudy.5 mph88%29.86 "Hg3 mi
11:30 PM
Wed, May 4
66 °FThunderstorms. Partly cloudy.3 mph94%29.89 "Hg3 mi
11:00 PM66 °FThunderstorms. Partly cloudy.6 mph88%29.95 "Hg3 mi
10:30 PM66 °FLight rain. Partly cloudy.2 mph88%29.86 "Hg3 mi
10:00 PM66 °FPartly cloudy.2 mph88%29.89 "Hg3 mi
9:30 PM66 °FPartly cloudy.6 mph88%29.86 "Hg3 mi
9:00 PM66 °FThunderstorms. Partly cloudy.6 mph88%29.86 "Hg3 mi
8:30 PM64 °FThunderstorms. Partly cloudy.9 mph94%29.86 "Hg3 mi
8:00 PM66 °FThunderstorms. Broken clouds.1 mph83%29.92 "Hg4 mi
7:30 PM66 °FRain. Broken clouds.3 mph83%29.92 "Hg4 mi
7:00 PM66 °FBroken clouds.5 mph83%29.89 "Hg4 mi
6:30 PM66 °FBroken clouds.9 mph88%29.86 "Hg4 mi
6:00 PM66 °FBroken clouds.9 mph88%29.83 "Hg3 mi
5:30 PM64 °FBroken clouds.8 mph88%29.89 "Hg3 mi
5:00 PM64 °FRain. Broken clouds.5 mph88%29.95 "Hg3 mi
4:30 PM64 °FRain. Broken clouds.3 mph88%29.95 "Hg3 mi
4:00 PM64 °FRain. Broken clouds.No wind88%29.95 "Hg3 mi
3:30 PM64 °FRain. Broken clouds.5 mph94%29.98 "Hg3 mi
3:00 PM64 °FRain. Broken clouds.7 mph88%29.98 "Hg2 mi
2:30 PM66 °FRain. Broken clouds.13 mph88%30.01 "Hg2 mi
2:00 PM66 °FBroken clouds.9 mph83%29.95 "Hg3 mi
1:30 PM66 °FFog.9 mph83%29.95 "Hg2 mi
1:03 PM66 °FFog.10 mph83%29.95 "Hg2 mi
1:00 PM66 °FBroken clouds.10 mph83%29.95 "Hg3 mi
12:30 PM70 °FBroken clouds.12 mph78%29.95 "Hg3 mi
12:00 PM68 °FBroken clouds.10 mph83%29.95 "Hg3 mi
11:30 AM70 °FBroken clouds.6 mph78%29.95 "Hg3 mi
11:00 AM68 °FBroken clouds.6 mph78%29.92 "Hg3 mi
10:30 AM68 °FClear.6 mph78%29.92 "Hg3 mi
10:00 AM68 °FClear.2 mph78%29.92 "Hg3 mi
9:30 AM68 °FClear.3 mph78%29.92 "Hg3 mi
9:00 AM68 °FClear.5 mph78%29.92 "Hg3 mi
8:30 AM66 °FFog.3 mph88%29.92 "Hg2 mi
8:00 AM64 °FFog.5 mph88%29.89 "Hg2 mi
7:30 AM63 °FFog.3 mph88%29.92 "Hg2 mi
7:00 AM61 °FFog.3 mph94%29.92 "Hg2 mi
6:30 AM61 °FPartly cloudy.3 mph94%29.92 "Hg3 mi
6:00 AM63 °FPartly cloudy.2 mph88%29.89 "Hg3 mi
5:30 AM63 °FPartly cloudy.No wind88%29.89 "Hg2 mi
5:00 AM63 °FPartly cloudy.No wind88%29.92 "Hg3 mi
4:30 AM63 °FMild.2 mph88%29.92 "Hg3 mi
4:00 AM63 °FPartly cloudy.3 mph88%29.92 "Hg3 mi
Weather by CustomWeather, © 2016

See weather overviewHow to use our weather pages